GSAT-29

Last updated on Thu Nov 21 2024 00:02:44 GMT+0000 (Coordinated Universal Time)

1 43698U 18089A 24325.09176097 .00000086 00000+0 00000+0 0 9993 2 43698 0.0211 273.0457 0003739 321.3204 273.3282 1.00269678 22045
UTC large
Height (km)
Speed (km/s)
/
Latitude / Longitude
Inclination (degrees)
Orbital Period (minutes)
Azimuth
Elevation
Range (km)
Doppler Factor

Next 0 passes for location: London (51.5072 / 0.1276)

Sorry there are no passes over London.